• Currently

    Reported at Minneapolis, Minneapolis-St. Paul International Airport, MN
    4:10 AM CST TUE SEP 19 2017
  • 61°F16°C
  • Overcast
    Overcast
  • Feels Like:61°F16°CDew Point:57°F14°CHumidity:88% Winds:SE 8 mph 13 kph
    Pressure:29.91 in1013 hPaVisibility:10.00 miles16090.00 meters
Time Weather Temp Dew Point
Humidity Winds Visibility Pressure Precipitation
1 hr 24 hr
Friday, September 15
23:53 23:53 Mostly Clear Mostly Clear 77°F25°C 61°F16°C 58% S 12 mphS 19 kph 10.0 miles16.1 km 29.71 in1006 hPa 0.00 in0.00 mm --
22:53 22:53 Mostly Clear Mostly Clear 78°F26°C 61°F16°C 56% S 10 mphS 17 kph 10.0 miles16.1 km 29.71 in1006 hPa 0.00 in0.00 mm --
21:53 21:53 Mostly Clear Mostly Clear 79°F26°C 62°F17°C 56% S 12 mphS 19 kph 10.0 miles16.1 km 29.71 in1006 hPa 0.00 in0.00 mm --
20:53 20:53 Mostly Clear Mostly Clear 80°F27°C 64°F18°C 58% SSE 10 mphSSE 17 kph 10.0 miles16.1 km 29.71 in1006 hPa 0.00 in0.00 mm --
19:53 19:53 Mostly Clear Mostly Clear 80°F27°C 65°F18°C 60% SSE 7 mphSSE 11 kph 10.0 miles16.1 km 29.71 in1006 hPa 0.00 in0.00 mm --
18:53 18:53 Mostly Sunny Mostly Sunny 85°F29°C 63°F17°C 48% SSE 8 mphSSE 13 kph 9.0 miles14.5 km 29.68 in1005 hPa 0.00 in0.00 mm --
17:53 17:53 Mostly Sunny Mostly Sunny 88°F31°C 61°F16°C 40% SSE 9 mphSSE 15 kph 10.0 miles16.1 km 29.68 in1005 hPa 0.00 in0.00 mm --
16:53 16:53 Mostly Sunny Mostly Sunny 89°F32°C 59°F15°C 36% S 13 mphS 20 kph 10.0 miles16.1 km 29.68 in1005 hPa 0.00 in0.00 mm --
15:53 15:53 Mostly Sunny Mostly Sunny 91°F33°C 61°F16°C 37% S 13 mphS 20 kph 10.0 miles16.1 km 29.68 in1005 hPa 0.00 in0.00 mm --
14:53 14:53 Partly Cloudy Partly Cloudy 87°F31°C 63°F17°C 45% S 8 mphS 13 kph 10.0 miles16.1 km 29.71 in1006 hPa 0.00 in0.00 mm --
13:53 13:53 Mostly Cloudy Mostly Cloudy 85°F29°C 62°F17°C 46% S 10 mphS 17 kph 10.0 miles16.1 km 29.71 in1006 hPa 0.00 in0.00 mm --
12:53 12:53 Mostly Cloudy Mostly Cloudy 84°F29°C 62°F17°C 48% S 8 mphS 13 kph 10.0 miles16.1 km 29.71 in1006 hPa 0.00 in0.00 mm --
11:53 11:53 Partly Cloudy Partly Cloudy 82°F28°C 65°F18°C 56% SSE 7 mphSSE 11 kph 10.0 miles16.1 km 29.74 in1007 hPa 0.00 in0.00 mm --
10:53 10:53 Mostly Sunny Mostly Sunny 79°F26°C 63°F17°C 58% SSW 6 mphSSW 9 kph 10.0 miles16.1 km 29.74 in1007 hPa 0.00 in0.00 mm --
09:53 09:53 Mostly Sunny Mostly Sunny 75°F24°C 64°F18°C 69% S 7 mphS 11 kph 10.0 miles16.1 km 29.74 in1007 hPa 0.00 in0.00 mm --
08:53 08:53 Mostly Sunny Mostly Sunny 71°F22°C 64°F18°C 79% N 3 mphN 6 kph 10.0 miles16.1 km 29.74 in1007 hPa 0.00 in0.00 mm --
07:53 07:53 Mostly Sunny Mostly Sunny 68°F20°C 64°F18°C 87% SSE 5 mphSSE 7 kph 9.0 miles14.5 km 29.74 in1007 hPa 0.00 in0.00 mm --
06:53 06:53 Partly Cloudy Partly Cloudy 67°F19°C 64°F18°C 91% SE 5 mphSE 7 kph 8.0 miles12.9 km 29.74 in1007 hPa 0.00 in0.00 mm --
05:53 05:53 Clear Clear 68°F20°C 64°F18°C 87% CalmCalm 9.0 miles14.5 km 29.71 in1006 hPa 0.00 in0.00 mm --
04:53 04:53 Clear Clear 67°F19°C 64°F18°C 91% SSE 5 mphSSE 7 kph 10.0 miles16.1 km 29.71 in1006 hPa 0.00 in0.00 mm --
03:53 03:53 Clear Clear 67°F19°C 65°F18°C 93% SSE 6 mphSSE 9 kph 10.0 miles16.1 km 29.71 in1006 hPa 0.00 in0.00 mm --
02:53 02:53 Clear Clear 68°F20°C 65°F18°C 90% SE 6 mphSE 9 kph 10.0 miles16.1 km 29.71 in1006 hPa 0.00 in0.00 mm --
01:53 01:53 Clear Clear 70°F21°C 65°F18°C 84% SE 6 mphSE 9 kph 10.0 miles16.1 km 29.71 in1006 hPa 0.00 in0.00 mm --
00:53 00:53 Clear Clear 72°F22°C 66°F19°C 82% SE 5 mphSE 7 kph 10.0 miles16.1 km 29.68 in1005 hPa 0.00 in0.00 mm --